• în Republica Moldova
  • Lista ţărilor
  • Pe 7 zile
  • Temperatura apei
  • Hartă satelitară
  • Meteo pe hartă
  • Widget-uri
  • user-avatar
    Intrare

    Meteo pe oră la Kerns

    Astăzi, 24 Aprilie, Luni

    Timp Temperatura Precipitaţii Vânt Presiune Umiditate
    00:00 +23°C° 0,1 mm 5 m/s 761 mmHg 92%
    01:00 +25°C° 0,1 mm 5 m/s 761 mmHg 92%
    02:00 +23°C° 0,1 mm 5 m/s 760 mmHg 93%
    03:00 +23°C° 0,1 mm 5 m/s 760 mmHg 94%
    04:00 +23°C° 0 mm 5 m/s 760 mmHg 94%
    05:00 +23°C° 0 mm 5 m/s 760 mmHg 94%
    06:00 +23°C° 0 mm 5 m/s 760 mmHg 94%
    07:00 +23°C° 0 mm 5 m/s 760 mmHg 94%
    08:00 +26°C° 0,1 mm 5 m/s 760 mmHg 88%
    09:00 +27°C° 0,1 mm 5 m/s 760 mmHg 81%
    10:00 +29°C° 0 mm 5 m/s 761 mmHg 72%
    11:00 +29°C° 0 mm 5 m/s 760 mmHg 68%
    12:00 +30°C° 0 mm 5 m/s 760 mmHg 65%
    13:00 +32°C° 0 mm 5 m/s 760 mmHg 61%
    14:00 +32°C° 0 mm 5 m/s 760 mmHg 62%
    15:00 +30°C° 0 mm 5 m/s 759 mmHg 64%
    16:00 +30°C° 0 mm 5 m/s 759 mmHg 65%
    17:00 +28°C° 0 mm 5 m/s 759 mmHg 74%
    18:00 +26°C° 0 mm 5 m/s 759 mmHg 84%
    19:00 +25°C° 0 mm 4 m/s 760 mmHg 93%
    20:00 +23°C° 0 mm 4 m/s 760 mmHg 94%
    21:00 +23°C° 0 mm 4 m/s 760 mmHg 94%
    22:00 +23°C° 0 mm 4 m/s 761 mmHg 95%
    23:00 +23°C° 0 mm 4 m/s 760 mmHg 95%

    Mâine, 25 Aprilie, Marţi

    Timp Temperatura Precipitaţii Vânt Presiune Umiditate
    00:00 +23°C° 0 mm 4 m/s 760 mmHg 95%
    01:00 +23°C° 0 mm 4 m/s 760 mmHg 96%
    02:00 +23°C° 0 mm 4 m/s 760 mmHg 96%
    03:00 +23°C° 0 mm 4 m/s 759 mmHg 96%
    04:00 +23°C° 0 mm 4 m/s 759 mmHg 96%
    05:00 +23°C° 0 mm 4 m/s 759 mmHg 96%
    06:00 +25°C° 0 mm 4 m/s 760 mmHg 96%
    07:00 +25°C° 0 mm 4 m/s 760 mmHg 95%
    08:00 +26°C° 0,1 mm 4 m/s 760 mmHg 91%
    09:00 +26°C° 0,1 mm 4 m/s 760 mmHg 87%
    10:00 +27°C° 0,1 mm 4 m/s 760 mmHg 83%
    11:00 +27°C° 0,1 mm 5 m/s 760 mmHg 82%
    12:00 +28°C° 0,1 mm 5 m/s 759 mmHg 81%
    13:00 +28°C° 0,1 mm 5 m/s 759 mmHg 81%
    14:00 +28°C° 0 mm 5 m/s 759 mmHg 78%
    15:00 +29°C° 0 mm 5 m/s 758 mmHg 75%
    16:00 +29°C° 0 mm 5 m/s 758 mmHg 72%
    17:00 +27°C° 0 mm 4 m/s 758 mmHg 79%
    18:00 +26°C° 0 mm 4 m/s 759 mmHg 87%
    19:00 +23°C° 0 mm 4 m/s 759 mmHg 94%
    20:00 +23°C° 0 mm 4 m/s 760 mmHg 95%
    21:00 +23°C° 0 mm 4 m/s 760 mmHg 95%
    22:00 +23°C° 0 mm 4 m/s 760 mmHg 96%
    23:00 +23°C° 0 mm 4 m/s 760 mmHg 96%

    Poimâine, 26 Aprilie, Miercuri

    Timp Temperatura Precipitaţii Vânt Presiune Umiditate
    00:00 +22°C° 0 mm 4 m/s 760 mmHg 96%
    01:00 +22°C° 0 mm 4 m/s 759 mmHg 97%
    02:00 +22°C° 0 mm 3 m/s 759 mmHg 96%
    03:00 +22°C° 0 mm 3 m/s 759 mmHg 96%
    04:00 +22°C° 0 mm 3 m/s 758 mmHg 96%
    05:00 +22°C° 0 mm 3 m/s 759 mmHg 97%
    06:00 +22°C° 0 mm 3 m/s 759 mmHg 97%
    07:00 +22°C° 0 mm 3 m/s 759 mmHg 97%
    08:00 +25°C° 0 mm 3 m/s 760 mmHg 89%
    09:00 +27°C° 0 mm 3 m/s 760 mmHg 80%
    10:00 +29°C° 0 mm 3 m/s 760 mmHg 71%
    11:00 +30°C° 0 mm 3 m/s 759 mmHg 66%
    12:00 +31°C° 0 mm 3 m/s 759 mmHg 61%
    13:00 +33°C° 0 mm 4 m/s 758 mmHg 57%
    14:00 +32°C° 0 mm 4 m/s 758 mmHg 59%
    15:00 +32°C° 0 mm 4 m/s 757 mmHg 62%
    16:00 +32°C° 0 mm 4 m/s 757 mmHg 64%
    17:00 +29°C° 0 mm 3 m/s 757 mmHg 75%
    18:00 +26°C° 0 mm 3 m/s 758 mmHg 86%
    19:00 +24°C° 0 mm 3 m/s 758 mmHg 96%
    20:00 +24°C° 0 mm 3 m/s 759 mmHg 97%
    21:00 +23°C° 0 mm 2 m/s 759 mmHg 98%
    22:00 +21°C° 0 mm 2 m/s 760 mmHg 99%
    23:00 +21°C° 0 mm 2 m/s 759 mmHg 98%

    27 Aprilie, Joi

    Timp Temperatura Precipitaţii Vânt Presiune Umiditate
    00:00 +21°C° 0 mm 2 m/s 759 mmHg 98%
    01:00 +21°C° 0 mm 1 m/s 759 mmHg 97%
    02:00 +21°C° 0 mm 1 m/s 758 mmHg 94%
    03:00 +22°C° 0 mm 1 m/s 758 mmHg 91%
    04:00 +22°C° 0 mm 1 m/s 758 mmHg 88%
    05:00 +22°C° 0 mm 1 m/s 758 mmHg 86%
    06:00 +21°C° 0 mm 2 m/s 758 mmHg 85%
    07:00 +21°C° 0 mm 2 m/s 759 mmHg 83%
    08:00 +25°C° 0 mm 2 m/s 759 mmHg 72%
    09:00 +28°C° 0 mm 2 m/s 759 mmHg 61%
    10:00 +31°C° 0 mm 2 m/s 759 mmHg 49%
    11:00 +33°C° 0 mm 3 m/s 759 mmHg 48%
    12:00 +34°C° 0 mm 3 m/s 758 mmHg 46%
    13:00 +35°C° 0 mm 3 m/s 758 mmHg 44%
    14:00 +34°C° 0 mm 3 m/s 757 mmHg 47%
    15:00 +34°C° 0 mm 3 m/s 757 mmHg 50%
    16:00 +33°C° 0 mm 3 m/s 757 mmHg 53%
    17:00 +29°C° 0 mm 3 m/s 757 mmHg 66%
    18:00 +26°C° 0 mm 2 m/s 758 mmHg 79%
    19:00 +24°C° 0 mm 2 m/s 758 mmHg 93%
    20:00 +23°C° 0 mm 2 m/s 759 mmHg 94%
    21:00 +22°C° 0 mm 1 m/s 759 mmHg 96%
    22:00 +21°C° 0 mm 1 m/s 759 mmHg 98%
    23:00 +21°C° 0 mm 1 m/s 759 mmHg 96%

    28 Aprilie, Vineri

    Timp Temperatura Precipitaţii Vânt Presiune Umiditate
    00:00 +22°C° 0 mm 1 m/s 759 mmHg 94%
    01:00 +22°C° 0 mm 1 m/s 759 mmHg 93%
    02:00 +21°C° 0 mm 2 m/s 759 mmHg 90%
    03:00 +21°C° 0 mm 3 m/s 759 mmHg 87%
    04:00 +21°C° 0 mm 4 m/s 759 mmHg 84%
    05:00 +20°C° 0 mm 4 m/s 759 mmHg 78%
    06:00 +20°C° 0 mm 5 m/s 760 mmHg 72%
    07:00 +19°C° 0 mm 5 m/s 760 mmHg 67%
    08:00 +22°C° 0 mm 5 m/s 760 mmHg 58%
    09:00 +26°C° 0 mm 5 m/s 761 mmHg 50%
    10:00 +28°C° 0 mm 5 m/s 761 mmHg 41%
    11:00 +29°C° 0 mm 5 m/s 760 mmHg 41%
    12:00 +30°C° 0 mm 6 m/s 759 mmHg 41%
    13:00 +32°C° 0 mm 6 m/s 759 mmHg 41%
    14:00 +30°C° 0 mm 6 m/s 759 mmHg 46%
    15:00 +30°C° 0 mm 6 m/s 758 mmHg 50%
    16:00 +29°C° 0 mm 6 m/s 758 mmHg 54%
    17:00 +27°C° 0 mm 5 m/s 759 mmHg 66%
    18:00 +25°C° 0 mm 5 m/s 759 mmHg 78%
    19:00 +21°C° 0 mm 5 m/s 760 mmHg 89%
    20:00 +21°C° 0 mm 5 m/s 760 mmHg 91%
    21:00 +20°C° 0 mm 4 m/s 761 mmHg 93%
    22:00 +20°C° 0 mm 4 m/s 761 mmHg 96%
    23:00 +19°C° 0 mm 4 m/s 761 mmHg 96%

    29 Aprilie, Sâmbătă

    Timp Temperatura Precipitaţii Vânt Presiune Umiditate
    00:00 +19°C° 0 mm 4 m/s 760 mmHg 96%
    01:00 +19°C° 0 mm 4 m/s 760 mmHg 96%
    02:00 +19°C° 0 mm 4 m/s 760 mmHg 96%
    03:00 +19°C° 0 mm 4 m/s 760 mmHg 96%
    04:00 +18°C° 0 mm 4 m/s 760 mmHg 95%
    05:00 +18°C° 0 mm 4 m/s 760 mmHg 95%
    06:00 +18°C° 0 mm 4 m/s 760 mmHg 95%
    07:00 +19°C° 0 mm 4 m/s 761 mmHg 95%
    08:00 +21°C° 0 mm 4 m/s 761 mmHg 84%
    09:00 +25°C° 0 mm 4 m/s 761 mmHg 73%
    10:00 +27°C° 0 mm 5 m/s 761 mmHg 61%
    11:00 +28°C° 0 mm 5 m/s 760 mmHg 56%
    12:00 +30°C° 0 mm 5 m/s 759 mmHg 51%
    13:00 +32°C° 0 mm 5 m/s 759 mmHg 46%
    14:00 +30°C° 0 mm 5 m/s 759 mmHg 48%
    15:00 +30°C° 0 mm 5 m/s 759 mmHg 49%
    16:00 +29°C° 0 mm 5 m/s 758 mmHg 51%
    17:00 +26°C° 0 mm 5 m/s 759 mmHg 61%
    18:00 +22°C° 0 mm 5 m/s 760 mmHg 71%
    19:00 +19°C° 0 mm 4 m/s 760 mmHg 81%
    20:00 +19°C° 0 mm 4 m/s 760 mmHg 81%
    21:00 +18°C° 0 mm 4 m/s 761 mmHg 80%
    22:00 +17°C° 0 mm 4 m/s 761 mmHg 80%
    23:00 +17°C° 0 mm 4 m/s 760 mmHg 77%
    Arată mai mult